Location: Berlin
(52.5171°N, 13.3759°E)
Time: 04:27:58
(UTC+01:00)

ISS - Pass Details

Date: 12 February 2018
Orbit: 403 x 407 km, 51.6° (Epoch: 18 February)

Event Time Altitude Azimuth Distance (km) Brightness Sun altitude
Rises 18:32:53 0° 277° (W) 2,322 1.8 -12.5°
Reaches altitude 10° 18:35:56 10° 245° (WSW) 1,458 0.2 -13.0°
Maximum altitude 18:37:19 12° 220° (SW) 1,331 -0.6 -13.2°
Drops below altitude 10° 18:38:42 10° 195° (SSW) 1,454 -0.8 -13.4°
Sets 18:41:45 0° 163° (SSE) 2,309 -0.1 -13.9°
